Location: Godiavel Galaoual
(15.2485°N, 12.6604°W)
Time: 03:44:42
(UTC+00:00)

ISS - Pass Details

Date: 17 May 2021
Orbit: 417 x 422 km, 51.6° (Epoch: 22 June)

Event Time Altitude Azimuth Distance (km) Brightness Sun altitude
Rises 04:58:23 0° 331° (NNW) 2,359 0.0 -19.2°
Reaches altitude 10° 05:00:33 10° 339° (NNW) 1,496 -0.9 -18.7°
Maximum altitude 05:03:46 42° 51° (NE) 610 -2.4 -18.0°
Drops below altitude 10° 05:06:58 10° 124° (SE) 1,495 -0.6 -17.3°
Sets 05:09:07 0° 131° (SE) 2,357 0.4 -16.9°
